Home   Weather   Kuwait City   Past weeks

Flag for Kuwait Past Weather in Kuwait City, Kuwait — Yesterday and Last 2 Weeks

Now
95 °F

Haze.


Feels Like: 92 °F
Forecast: 77 / 91 °F
Wind: 9 mph from South

Location: Kuwait International Airport

Current Time: Apr 30, 2017 at 10:41:22 am

Latest Report: Apr 30, 2017 at 10:00 am


Visibility: 1 mi

Pressure: 29.83 "Hg

Humidity: 23%

Dew Point: 52 °F

Location of Kuwait CityLocation

Past Weather in Kuwait City — Graph

°F

Kuwait City Temperature Yesterday

Maximum temperature yesterday: 100 °F (at 12:00 pm)
Minimum temperature yesterday: 84 °F (at 12:00 am)
Average temperature yesterday: 90 °F

High & Low Weather Summary for the Past Weeks

 TemperatureHumidityPressure
High104 °F (Apr 23, 2:00 pm)61% (Apr 18, 7:00 am)30.01 "Hg (Apr 18, 7:00 am)
Low66 °F (Apr 23, 6:00 am)8% (Apr 23, 2:00 pm)29.71 "Hg (Apr 24, 4:00 pm)
Average84 °F27%29.86 "Hg
* Reported Apr 15 9:00 am — Apr 30 9:00 am, Kuwait City, Weather by CustomWeather, © 2017

Note: Actual official high and low records may vary slightly from our data, if they occured in-between our weather recording intervals... More about our weather records

Advertising

Kuwait City Weather History for the Previous 24 Hours

Scroll right to see more
 ConditionsComfort  
Time TempWeatherWind HumidityBarometerVisibility
9:00 am
Sun, Apr 30
91 °FHaze.8 mph28%29.86 "Hg1 mi
8:00 am90 °FHaze.9 mph31%29.86 "Hg1 mi
7:00 am86 °FHaze.5 mph38%29.83 "Hg1 mi
6:00 am84 °FHaze.7 mph37%29.80 "Hg1 mi
5:00 am84 °FHaze.No wind31%29.77 "Hg3 mi
4:00 am86 °FHaze.No wind29%29.77 "Hg3 mi
3:00 am88 °FHaze.3 mph27%29.77 "Hg1 mi
2:00 am88 °FHaze.No wind25%29.77 "Hg1 mi
1:00 am88 °FHaze.7 mph27%29.77 "Hg1 mi
12:00 am88 °FHaze.3 mph27%29.80 "Hg1 mi
11:00 pm
Sat, Apr 29
88 °FHaze.No wind29%29.80 "Hg1 mi
10:00 pm88 °FHaze.3 mph29%29.80 "Hg1 mi
9:00 pm90 °FHaze.13 mph26%29.83 "Hg2 mi
8:00 pm88 °FHaze.7 mph35%29.80 "Hg2 mi
7:00 pm90 °FHaze.10 mph31%29.77 "Hg2 mi
6:00 pm91 °FHaze.12 mph28%29.74 "Hg1 mi
5:00 pm93 °FHaze.12 mph26%29.74 "Hg1 mi
4:00 pm97 °FLow level haze.20 mph20%29.74 "Hg1 mi
3:00 pm97 °FLow level haze.22 mph22%29.74 "Hg1 mi
2:00 pm97 °FHaze.16 mph23%29.74 "Hg1 mi
12:00 pm100 °FHaze.5 mph18%29.77 "Hg1 mi
11:00 am99 °FHaze.3 mph19%29.80 "Hg1 mi
10:00 am93 °FHaze.3 mph23%29.80 "Hg1 mi
Weather by CustomWeather, © 2017

See weather overviewHow to use our weather pages